Time,TemperatureF,DewpointF,PressureIn,WindDirection,WindDirectionDegrees,WindSpeedMPH,WindSpeedGustMPH,Humidity,HourlyPrecipIn,Conditions,Clouds,dailyrainin,SoftwareType,DateUTC
2013-02-04 00:09:00,16.7,14.0,30.03,West,281,3.0,4.0,87,0.00,,,0.00,weatherlink.com 1.10,2013-02-04 05:09:00,
2013-02-04 00:24:00,16.9,14.0,30.04,West,276,2.0,4.0,88,0.00,,,0.00,weatherlink.com 1.10,2013-02-04 05:24:00,
2013-02-04 00:39:00,17.0,14.0,30.04,West,267,3.0,6.0,87,0.00,,,0.00,weatherlink.com 1.10,2013-02-04 05:39:00,
2013-02-04 00:54:00,17.1,14.0,30.04,West,269,2.0,5.0,86,0.00,,,0.00,weatherlink.com 1.10,2013-02-04 05:54:00,
2013-02-04 01:09:00,16.9,14.0,30.04,West,269,1.0,4.0,87,0.00,,,0.00,weatherlink.com 1.10,2013-02-04 06:09:00,
2013-02-04 01:24:00,16.9,14.0,30.05,West,269,2.0,4.0,88,0.00,,,0.00,weatherlink.com 1.10,2013-02-04 06:24:00,
2013-02-04 01:39:00,16.9,15.0,30.04,West,267,2.0,4.0,90,0.00,,,0.00,weatherlink.com 1.10,2013-02-04 06:39:00,
2013-02-04 01:54:00,16.8,14.0,30.04,West,267,3.0,3.0,90,0.00,,,0.00,weatherlink.com 1.10,2013-02-04 06:54:00,
2013-02-04 02:09:00,16.9,14.0,30.04,West,273,3.0,5.0,89,0.00,,,0.00,weatherlink.com 1.10,2013-02-04 07:09:00,
2013-02-04 02:24:00,17.0,14.0,30.04,West,273,3.0,4.0,89,0.00,,,0.00,weatherlink.com 1.10,2013-02-04 07:24:00,
2013-02-04 02:39:00,17.0,14.0,30.04,West,273,2.0,3.0,89,0.00,,,0.00,weatherlink.com 1.10,2013-02-04 07:39:00,
2013-02-04 02:54:00,17.0,14.0,30.04,West,273,3.0,4.0,89,0.00,,,0.00,weatherlink.com 1.10,2013-02-04 07:54:00,
2013-02-04 03:09:00,16.8,14.0,30.04,West,273,2.0,4.0,89,0.00,,,0.00,weatherlink.com 1.10,2013-02-04 08:09:00,
2013-02-04 03:25:00,16.7,14.0,30.05,West,273,1.0,2.0,89,0.00,,,0.00,weatherlink.com 1.10,2013-02-04 08:25:00,
2013-02-04 03:39:00,16.6,14.0,30.03,West,273,0.0,2.0,89,0.00,,,0.00,weatherlink.com 1.10,2013-02-04 08:39:00,
2013-02-04 03:54:00,16.6,14.0,30.03,West,273,1.0,2.0,89,0.00,,,0.00,weatherlink.com 1.10,2013-02-04 08:54:00,
2013-02-04 04:09:00,16.6,14.0,30.03,West,273,0.0,2.0,89,0.00,,,0.00,weatherlink.com 1.10,2013-02-04 09:09:00,
2013-02-04 04:25:00,16.6,14.0,30.03,West,273,0.0,1.0,90,0.00,,,0.00,weatherlink.com 1.10,2013-02-04 09:25:00,
2013-02-04 04:39:00,16.6,14.0,30.02,West,273,0.0,0.0,90,0.00,,,0.00,weatherlink.com 1.10,2013-02-04 09:39:00,
2013-02-04 04:54:00,16.6,14.0,30.02,West,273,0.0,0.0,90,0.00,,,0.00,weatherlink.com 1.10,2013-02-04 09:54:00,
2013-02-04 05:09:00,16.5,14.0,30.02,West,273,0.0,1.0,90,0.00,,,0.00,weatherlink.com 1.10,2013-02-04 10:09:00,
2013-02-04 05:24:00,16.2,14.0,30.02,West,273,0.0,0.0,90,0.00,,,0.00,weatherlink.com 1.10,2013-02-04 10:24:00,
2013-02-04 05:40:00,15.9,14.0,30.01,West,273,0.0,2.0,91,0.00,,,0.00,weatherlink.com 1.10,2013-02-04 10:40:00,
2013-02-04 05:54:00,15.6,14.0,30.00,West,273,1.0,2.0,91,0.00,,,0.00,weatherlink.com 1.10,2013-02-04 10:54:00,
2013-02-04 06:10:00,15.5,14.0,30.00,West,273,1.0,2.0,92,0.00,,,0.00,weatherlink.com 1.10,2013-02-04 11:10:00,
2013-02-04 06:25:00,15.5,14.0,30.00,West,273,0.0,2.0,92,0.00,,,0.00,weatherlink.com 1.10,2013-02-04 11:25:00,
2013-02-04 06:40:00,15.5,14.0,30.01,West,273,0.0,2.0,92,0.00,,,0.00,weatherlink.com 1.10,2013-02-04 11:40:00,
2013-02-04 06:55:00,15.5,14.0,30.00,West,273,0.0,2.0,92,0.00,,,0.00,weatherlink.com 1.10,2013-02-04 11:55:00,
2013-02-04 07:10:00,15.5,14.0,30.00,West,273,1.0,2.0,92,0.00,,,0.00,weatherlink.com 1.10,2013-02-04 12:10:00,
2013-02-04 07:25:00,15.7,14.0,30.00,West,261,1.0,3.0,92,0.00,,,0.00,weatherlink.com 1.10,2013-02-04 12:25:00,
2013-02-04 07:40:00,15.9,14.0,29.99,ESE,120,1.0,3.0,92,0.00,,,0.00,weatherlink.com 1.10,2013-02-04 12:40:00,
2013-02-04 07:55:00,16.1,14.0,30.00,ESE,120,2.0,3.0,92,0.00,,,0.00,weatherlink.com 1.10,2013-02-04 12:55:00,
2013-02-04 08:10:00,16.2,14.0,30.00,ESE,120,3.0,4.0,92,0.00,,,0.00,weatherlink.com 1.10,2013-02-04 13:10:00,
2013-02-04 08:25:00,16.4,15.0,30.00,ESE,120,2.0,3.0,92,0.00,,,0.00,weatherlink.com 1.10,2013-02-04 13:25:00,
2013-02-04 08:40:00,16.7,15.0,30.00,ESE,120,0.0,3.0,92,0.00,,,0.00,weatherlink.com 1.10,2013-02-04 13:40:00,
2013-02-04 08:55:00,17.0,15.0,30.01,ESE,120,1.0,2.0,92,0.00,,,0.00,weatherlink.com 1.10,2013-02-04 13:55:00,
2013-02-04 09:10:00,17.2,15.0,30.00,ESE,120,0.0,3.0,92,0.00,,,0.00,weatherlink.com 1.10,2013-02-04 14:10:00,
2013-02-04 09:25:00,17.7,16.0,30.00,ESE,120,0.0,2.0,92,0.00,,,0.00,weatherlink.com 1.10,2013-02-04 14:25:00,
2013-02-04 09:40:00,18.0,16.0,30.00,ESE,121,2.0,5.0,92,0.00,,,0.00,weatherlink.com 1.10,2013-02-04 14:40:00,
2013-02-04 09:55:00,18.3,16.0,30.00,ESE,121,3.0,4.0,92,0.00,,,0.00,weatherlink.com 1.10,2013-02-04 14:55:00,
2013-02-04 10:10:00,18.8,17.0,30.00,ESE,121,1.0,4.0,92,0.00,,,0.00,weatherlink.com 1.10,2013-02-04 15:10:00,
2013-02-04 10:25:00,18.9,17.0,29.99,ESE,121,3.0,5.0,92,0.00,,,0.00,weatherlink.com 1.10,2013-02-04 15:25:00,
2013-02-04 10:40:00,19.3,17.0,30.00,ESE,121,2.0,3.0,92,0.00,,,0.00,weatherlink.com 1.10,2013-02-04 15:40:00,
2013-02-04 10:55:00,19.5,17.0,29.99,SSE,166,1.0,5.0,91,0.00,,,0.00,weatherlink.com 1.10,2013-02-04 15:55:00,
2013-02-04 11:10:00,20.1,18.0,29.99,SSE,167,1.0,3.0,91,0.00,,,0.00,weatherlink.com 1.10,2013-02-04 16:10:00,
2013-02-04 11:25:00,20.5,18.0,29.99,SSE,167,2.0,5.0,91,0.00,,,0.00,weatherlink.com 1.10,2013-02-04 16:25:00,
2013-02-04 11:40:00,20.5,18.0,29.98,SSE,166,4.0,5.0,91,0.00,,,0.00,weatherlink.com 1.10,2013-02-04 16:40:00,
2013-02-04 11:55:00,20.8,19.0,29.98,SSE,166,2.0,5.0,91,0.01,,,0.01,weatherlink.com 1.10,2013-02-04 16:55:00,
2013-02-04 12:10:00,21.2,19.0,29.97,SSE,166,4.0,6.0,91,0.01,,,0.01,weatherlink.com 1.10,2013-02-04 17:10:00,
2013-02-04 12:25:00,20.9,19.0,29.96,SE,130,4.0,7.0,90,0.01,,,0.01,weatherlink.com 1.10,2013-02-04 17:25:00,
2013-02-04 12:40:00,20.9,19.0,29.95,SE,129,3.0,6.0,90,0.01,,,0.01,weatherlink.com 1.10,2013-02-04 17:40:00,
2013-02-04 12:55:00,21.1,19.0,29.94,SSE,154,4.0,6.0,91,0.00,,,0.01,weatherlink.com 1.10,2013-02-04 17:55:00,
2013-02-04 13:10:00,21.3,19.0,29.94,South,174,5.0,6.0,90,0.01,,,0.02,weatherlink.com 1.10,2013-02-04 18:10:00,
2013-02-04 13:25:00,21.5,19.0,29.93,South,182,3.0,7.0,90,0.01,,,0.02,weatherlink.com 1.10,2013-02-04 18:25:00,
2013-02-04 13:41:00,21.6,19.0,29.93,SE,133,4.0,5.0,90,0.01,,,0.02,weatherlink.com 1.10,2013-02-04 18:41:00,
2013-02-04 13:55:00,21.3,19.0,29.92,SE,140,2.0,4.0,90,0.01,,,0.02,weatherlink.com 1.10,2013-02-04 18:55:00,
2013-02-04 14:10:00,21.4,19.0,29.92,SE,140,1.0,3.0,90,0.00,,,0.02,weatherlink.com 1.10,2013-02-04 19:10:00,
2013-02-04 14:25:00,21.6,19.0,29.92,SE,141,3.0,4.0,90,0.00,,,0.02,weatherlink.com 1.10,2013-02-04 19:25:00,
2013-02-04 14:40:00,21.8,19.0,29.91,SE,142,3.0,5.0,90,0.01,,,0.03,weatherlink.com 1.10,2013-02-04 19:40:00,
2013-02-04 14:55:00,21.9,19.0,29.91,SE,143,2.0,5.0,89,0.01,,,0.03,weatherlink.com 1.10,2013-02-04 19:55:00,
2013-02-04 15:11:00,22.0,19.0,29.90,SE,144,2.0,4.0,89,0.01,,,0.03,weatherlink.com 1.10,2013-02-04 20:11:00,
2013-02-04 15:25:00,22.2,20.0,29.90,SE,144,1.0,4.0,89,0.01,,,0.03,weatherlink.com 1.10,2013-02-04 20:25:00,
2013-02-04 15:41:00,22.4,20.0,29.90,SE,144,2.0,4.0,90,0.00,,,0.03,weatherlink.com 1.10,2013-02-04 20:41:00,
2013-02-04 15:56:00,22.5,20.0,29.90,SE,144,2.0,3.0,89,0.00,,,0.03,weatherlink.com 1.10,2013-02-04 20:56:00,
2013-02-04 16:11:00,22.3,19.0,29.90,SE,144,2.0,4.0,88,0.00,,,0.03,weatherlink.com 1.10,2013-02-04 21:11:00,
2013-02-04 16:41:00,22.4,19.0,29.90,SE,144,0.0,3.0,88,0.00,,,0.03,weatherlink.com 1.10,2013-02-04 21:41:00,
2013-02-04 16:56:00,22.2,19.0,29.89,SE,144,2.0,3.0,88,0.00,,,0.03,weatherlink.com 1.10,2013-02-04 21:56:00,
2013-02-04 17:11:00,22.2,20.0,29.90,SE,144,0.0,2.0,89,0.00,,,0.03,weatherlink.com 1.10,2013-02-04 22:11:00,
2013-02-04 17:26:00,22.0,19.0,29.89,SE,144,2.0,3.0,88,0.00,,,0.03,weatherlink.com 1.10,2013-02-04 22:26:00,
2013-02-04 17:41:00,21.8,19.0,29.89,SE,144,2.0,2.0,89,0.00,,,0.03,weatherlink.com 1.10,2013-02-04 22:41:00,
2013-02-04 17:56:00,21.7,19.0,29.89,SE,144,0.0,1.0,89,0.00,,,0.03,weatherlink.com 1.10,2013-02-04 22:56:00,
2013-02-04 18:11:00,21.6,19.0,29.89,SE,144,1.0,1.0,89,0.00,,,0.03,weatherlink.com 1.10,2013-02-04 23:11:00,
2013-02-04 18:26:00,21.4,19.0,29.89,SE,144,0.0,0.0,89,0.00,,,0.03,weatherlink.com 1.10,2013-02-04 23:26:00,
2013-02-04 18:41:00,21.2,19.0,29.89,SE,144,0.0,0.0,89,0.00,,,0.03,weatherlink.com 1.10,2013-02-04 23:41:00,
2013-02-04 18:56:00,21.2,19.0,29.89,SE,144,0.0,0.0,90,0.00,,,0.03,weatherlink.com 1.10,2013-02-04 23:56:00,
2013-02-04 19:11:00,21.1,19.0,29.90,SE,144,0.0,0.0,90,0.00,,,0.03,weatherlink.com 1.10,2013-02-05 00:11:00,
2013-02-04 19:26:00,20.9,19.0,29.90,SE,144,1.0,1.0,90,0.00,,,0.03,weatherlink.com 1.10,2013-02-05 00:26:00,
2013-02-04 19:41:00,20.9,19.0,29.91,SE,144,0.0,1.0,90,0.00,,,0.03,weatherlink.com 1.10,2013-02-05 00:41:00,
2013-02-04 19:56:00,20.6,18.0,29.92,SE,144,1.0,2.0,91,0.00,,,0.03,weatherlink.com 1.10,2013-02-05 00:56:00,
2013-02-04 20:11:00,20.6,18.0,29.92,SE,144,0.0,1.0,91,0.00,,,0.03,weatherlink.com 1.10,2013-02-05 01:11:00,
2013-02-04 20:26:00,20.8,19.0,29.92,SE,144,0.0,1.0,92,0.00,,,0.03,weatherlink.com 1.10,2013-02-05 01:26:00,
2013-02-04 20:41:00,20.7,19.0,29.92,SE,144,0.0,1.0,92,0.00,,,0.03,weatherlink.com 1.10,2013-02-05 01:41:00,
2013-02-04 20:56:00,20.4,18.0,29.92,SE,144,1.0,1.0,91,0.00,,,0.03,weatherlink.com 1.10,2013-02-05 01:56:00,
2013-02-04 21:11:00,20.4,19.0,29.93,SE,144,1.0,2.0,92,0.00,,,0.03,weatherlink.com 1.10,2013-02-05 02:11:00,
2013-02-04 21:26:00,20.4,19.0,29.93,SE,144,1.0,2.0,92,0.00,,,0.03,weatherlink.com 1.10,2013-02-05 02:26:00,
2013-02-04 21:41:00,20.6,19.0,29.93,SE,144,0.0,2.0,92,0.00,,,0.03,weatherlink.com 1.10,2013-02-05 02:41:00,
2013-02-04 21:56:00,20.8,19.0,29.93,SE,144,0.0,1.0,92,0.00,,,0.03,weatherlink.com 1.10,2013-02-05 02:56:00,
2013-02-04 22:14:00,20.8,19.0,29.93,SE,144,0.0,1.0,92,0.00,,,0.03,weatherlink.com 1.10,2013-02-05 03:14:00,
2013-02-04 22:26:00,20.7,19.0,29.92,SE,144,0.0,1.0,92,0.00,,,0.03,weatherlink.com 1.10,2013-02-05 03:26:00,
2013-02-04 22:41:00,20.6,19.0,29.92,SE,144,0.0,1.0,92,0.00,,,0.03,weatherlink.com 1.10,2013-02-05 03:41:00,
2013-02-04 22:56:00,20.6,19.0,29.92,SE,144,0.0,0.0,92,0.00,,,0.03,weatherlink.com 1.10,2013-02-05 03:56:00,
2013-02-04 23:11:00,20.4,19.0,29.92,SE,144,0.0,1.0,92,0.00,,,0.03,weatherlink.com 1.10,2013-02-05 04:11:00,
2013-02-04 23:26:00,20.6,19.0,29.93,SE,144,0.0,0.0,93,0.00,,,0.03,weatherlink.com 1.10,2013-02-05 04:26:00,
2013-02-04 23:41:00,20.4,19.0,29.93,SE,144,0.0,0.0,93,0.00,,,0.03,weatherlink.com 1.10,2013-02-05 04:41:00,
2013-02-04 23:56:00,20.4,19.0,29.95,SE,144,1.0,2.0,93,0.00,,,0.03,weatherlink.com 1.10,2013-02-05 04:56:00,